GSAT0224 (GALILEO 28)

Last updated on Thu Oct 30 2025 00:02:36 GMT+0000 (Coordinated Universal Time)

1 49810U 21116B 25302.28717478 -.00000065 00000+0 00000+0 0 9999 2 49810 57.2305 347.9153 0003767 233.6101 130.4859 1.70476258 24272
UTC large
Height (km)
Speed (km/s)
/
Latitude / Longitude
Inclination (degrees)
Orbital Period (minutes)
Azimuth
Elevation
Range (km)
Doppler Factor

Next 0 passes for location: London (51.5072 / 0.1276)

Sorry there are no passes over London.